This demonstration page uses our WeatherBlox Daily Observations layout. Learn more.

Left ArrowRight Arrow

Hourly Observations for May 11, 2021

Temp ( °F °C ) Dew Point ( °F °C ) Humidity (%) Winds ( mph kmh ) Pressure ( in mb ) Visibility ( mi km ) Precip ( " mm )
12:53 am 00:53 Clear 64 17.8 61 16.1 90 90 Calm 30.03 1017 10 16 0.00 0.00
1:53 am 01:53 Mostly Cloudy 63 17.2 61 16.1 93 93 Calm 30.03 1017 10 16 0.00 0.00
2:53 am 02:53 Cloudy 63 17.2 60 15.6 90 90 NW 3 6 30.03 1017 10 16 0.00 0.00
3:18 am 03:18 Cloudy 63 17.2 59 15 87 87 Calm 30.04 1017 10 16 0.00 0.00
3:53 am 03:53 Cloudy 63 17.2 59 15 87 87 NNW 3 6 30.03 1017 10 16 0.00 0.00
4:53 am 04:53 Cloudy 62 16.7 59 15 90 90 Calm 30.04 1017 10 16 0.00 0.00
5:53 am 05:53 Cloudy 62 16.7 58 14.4 86 86 Calm 30.05 1018 10 16 0.00 0.00
6:53 am 06:53 Mostly Cloudy 61 16.1 58 14.4 90 90 W 3 6 30.06 1018 10 16 0.00 0.00
7:53 am 07:53 Cloudy 62 16.7 58 14.4 86 86 VRB 3 6 30.09 1019 10 16 0.00 0.00
8:53 am 08:53 Mostly Cloudy 63 17.2 58 14.4 84 84 Calm 30.09 1019 10 16 0.00 0.00
9:53 am 09:53 Partly Cloudy 66 18.9 58 14.4 75 75 Calm 30.09 1019 10 16 0.00 0.00
10:53 am 10:53 Mostly Sunny 67 19.4 59 15 76 76 Calm 30.10 1019 10 16 0.00 0.00
11:53 am 11:53 Partly Cloudy 69 20.6 60 15.6 73 73 NNW 3 6 30.09 1019 10 16 0.00 0.00
12:53 pm 12:53 Sunny 72 22.2 60 15.6 66 66 W 3 6 30.08 1019 10 16 0.00 0.00
1:53 pm 13:53 Partly Cloudy 75 23.9 60 15.6 60 60 W 8 13 30.08 1019 10 16 0.00 0.00
2:53 pm 14:53 Sunny 74 23.3 61 16.1 64 64 NW 9 15 30.07 1018 10 16 0.00 0.00
3:53 pm 15:53 Sunny 75 23.9 60 15.6 60 60 VRB 3 6 30.04 1017 10 16 0.00 0.00
4:53 pm 16:53 Mostly Sunny 74 23.3 61 16.1 64 64 NNW 5 7 30.02 1017 10 16 0.00 0.00
5:53 pm 17:53 Sunny 72 22.2 61 16.1 68 68 NNW 7 11 30.02 1017 10 16 0.00 0.00
6:53 pm 18:53 Sunny 70 21.1 60 15.6 71 71 NW 7 11 30.02 1017 10 16 0.00 0.00
7:53 pm 19:53 Cloudy 69 20.6 60 15.6 73 73 NNW 6 9 30.03 1017 10 16 0.00 0.00
8:53 pm 20:53 Mostly Cloudy 67 19.4 58 14.4 73 73 N 3 6 30.04 1017 10 16 0.00 0.00
9:53 pm 21:53 Mostly Clear 66 18.9 57 13.9 73 73 Calm 30.07 1018 10 16 0.00 0.00
10:53 pm 22:53 Mostly Cloudy 66 18.9 57 13.9 73 73 Calm 30.07 1018 10 16 0.00 0.00
11:53 pm 23:53 Mostly Cloudy 64 17.8 59 15 84 84 Calm 30.07 1018 10 16 0.00 0.00

Powered by AerisWeather